Simultaneous Nadir Overpasses (SNOs) Predictions

Prediction of SNOs between GOES-16 and METOP-C Satellite Orbit:

Table of predicted SNOs for the next 14.0 days since TLE Epoch: 6/30/2024
Index Date Time (GOES-16) GOES-16 Lat,Lon METOP-C Lat,Lon Distance(km) Time Diff (sec)
1 07/01/2024 14:31:30 0.03, -75.22 0.14, -75.61 45.57 80
2 07/04/2024 02:29:52 -0.03, -75.23 -0.04, -75.22 2.17 80
3 07/06/2024 14:30:45 0.03, -75.26 -0.05, -74.78 54.55 80
4 07/08/2024 02:47:07 -0.02, -75.28 -0.97, -79.37 467.25 80
5 07/09/2024 02:29:08 -0.02, -75.30 0.18, -74.39 103.86 80
6 07/10/2024 14:45:20 0.02, -75.33 0.80, -78.95 411.96 80
7 07/11/2024 14:27:21 0.02, -75.35 -0.30, -73.95 159.71 80
8 07/13/2024 02:43:41 -0.01, -75.39 -0.75, -78.54 360.24 80
9 07/14/2024 02:25:43 -0.02, -75.41 0.42, -73.56 211.86 80
